Dewpoint
35 35 36 34 40 40 39 35 35 34 37 33 35 37 50 53 53 53 53 53 52 53 55 55 54 56 58 62 67 70 71 75 71 71 70 70 68 68 68 69 73 74 74 73
20 27 31 35 33 32 34 35 35 34 33 34 39 37 42 51 52 52 53 53 52 52 53 56 57 57 58 62 67 70 71 74 73 71 71 71 69 68 68 70 73 73 74 74
12 21 26 30 30 27 24 28 27 30 28 27 30 38 39 50 51 52 53 55 55 53 53 56 58 60 60 62 66 70 72 73 73 73 72 74 74 75 73 72 71 72 74 75
11 18 19 20 14 12 13 14 15 18 16 17 27 31 39 45 49 50 51 53 54 55 54 57 58 60 61 61 64 70 72 74 73 74 72 73 70 69 70 74 70 71 73 74
14 15 12 14 12 15 15 10 13 13 10 6 10 21 29 43 46 49 50 55 54 55 55 54 55 60 60 61 64 68 72 74 74 74 74 73 72 70 71 71 73 73 74 74
11 12 11 12 14 13 11 10 8 7 4 5 8 4 15 35 43 50 55 58 58 62 59 56 58 60 61 60 62 67 72 73 75 75 74 75 73 73 70 71 71 70 72 72
8 8 10 12 8 10 12 8 8 8 4 3 6 4 27 38 41 45 49 52 55 61 53 55 60 59 61 61 61 65 72 73 74 75 74 74 76 74 74 77 71 71 70 71
15 9 14 14 12 17 17 6 9 13 8 10 16 15 34 37 39 40 41 41 42 42 44 47 52 59 60 62 63 63 71 73 74 73 75 75 76 74 73 75 72 70 69 69
18 15 17 17 16 11 14 18 13 8 8 1 9 30 33 35 36 36 36 38 38 41 43 45 46 49 58 62 63 63 67 72 73 73 74 75 75 75 73 75 76 73 73 70
16 19 18 16 14 11 9 10 6 12 13 10 3 11 20 36 34 33 31 32 34 35 39 43 46 50 53 54 59 65 65 70 73 73 73 74 75 76 75 75 74 74 75 74
10 13 13 16 15 11 10 15 11 1 3 7 7 20 33 36 32 30 26 25 26 32 36 41 43 49 53 55 57 63 67 69 71 73 73 74 74 75 76 74 75 75 74 77
22 15 14 13 16 16 16 17 14 12 18 16 12 8 29 30 27 24 22 26 26 26 37 41 45 50 54 58 60 63 68 70 70 72 73 74 74 75 75 75 74 75 75 75
25 21 17 18 15 16 17 21 16 12 10 18 15 15 24 26 24 25 23 23 31 38 43 43 48 52 58 59 63 65 67 69 70 72 72 72 73 73 74 74 75 74 75 75
33 19 22 18 23 23 22 19 17 18 18 19 15 17 21 25 24 21 23 25 32 43 47 48 51 60 59 59 62 65 66 67 69 71 70 71 71 72 73 74 75 75 74 74
26 26 26 25 24 22 21 19 18 18 16 16 20 20 21 26 27 33 39 43 42 44 46 48 50 58 58 59 61 63 64 67 68 70 71 71 72 73 73 73 74 75 74 74
28 29 29 27 26 24 22 20 17 16 16 16 15 16 18 23 31 37 41 41 44 46 45 47 53 55 56 58 58 59 61 65 68 68 71 71 71 72 73 74 73 74 74 74
30 30 31 29 27 24 23 22 22 23 21 20 20 26 28 29 34 38 38 40 41 43 50 55 55 56 57 57 58 58 59 61 68 68 70 72 73 73 74 74 75 75 74 75
31 34 32 28 27 23 23 24 22 22 24 26 27 28 33 37 38 38 40 39 42 46 47 51 54 56 58 58 59 61 60 61 64 68 68 71 73 73 73 72 73 74 75 75
25 26 24 22 20 21 17 25 25 27 28 29 37 38 38 39 39 40 40 44 46 48 47 49 51 54 57 59 61 61 62 62 63 66 68 71 73 72 73 72 73 73 75 75
24 29 26 23 18 16 30 31 31 31 27 37 37 38 38 40 38 39 48 47 47 47 49 50 50 51 57 61 61 60 61 63 63 65 69 71 72 73 73 74 74 75 74 73
28 28 24 23 21 21 34 33 33 29 35 42 41 42 41 41 46 49 50 50 49 50 51 52 51 54 58 60 60 59 61 62 65 67 69 70 72 73 73 73 72 73 72 72
24 24 20 21 21 24 32 31 33 42 44 42 44 45 47 48 49 50 50 50 50 51 51 53 55 55 57 58 57 58 59 61 62 63 68 68 71 72 73 73 72 73 72 71
26 27 28 30 30 38 32 34 39 44 46 46 47 47 49 49 48 49 51 53 53 54 56 55 54 53 53 52 53 54 57 59 60 61 66 69 70 70 72 72 72 72 73 69
30 31 29 34 33 40 39 36 41 47 47 47 48 48 48 45 44 45 46 48 49 51 50 51 49 49 48 48 49 50 55 57 58 59 64 68 67 68 68 69 71 71 70 69
29 33 32 32 39 42 43 43 48 48 49 49 49 47 45 43 43 43 43 44 46 46 46 46 47 47 48 47 47 50 52 56 57 61 64 64 65 64 59 58 61 61 58 63
35 35 33 34 38 41 40 41 50 49 49 49 46 44 45 44 43 43 44 44 45 45 46 46 47 48 46 47 48 50 55 56 57 59 60 64 64 64 62 60 57 51 51 48
Lifted_Index
5 4 2 1 1 1 1 -0 -0 1 2 1 1 1 -1 -2 -2 -2 -2 -1 -0 0 0 1 2 2 1 0 -1 -1 -2 -3 -3 -2 -2 -2 -1 -1 -1 -1 -2 -2 -3 -3
5 4 3 2 2 2 1 0 0 1 2 2 1 1 -1 -1 -2 -2 -2 -1 -0 0 0 1 1 1 1 0 -1 -1 -2 -3 -3 -2 -2 -2 -2 -1 -1 -1 -2 -2 -2 -3
5 5 5 5 4 4 3 2 2 2 3 3 1 0 -1 -1 -2 -2 -2 -2 -1 -0 -0 0 0 0 0 0 -1 -2 -3 -3 -3 -2 -2 -2 -2 -2 -2 -2 -2 -2 -2 -3
5 5 6 6 5 5 4 4 4 4 4 3 1 0 -1 -2 -2 -2 -2 -2 -2 -1 -0 -0 -0 -0 -0 -0 -1 -2 -3 -3 -3 -3 -3 -3 -3 -2 -2 -2 -2 -2 -3 -3
5 6 7 6 6 6 6 6 6 5 4 3 2 0 -1 -2 -2 -2 -2 -2 -2 -2 -1 -1 -1 -1 -1 -1 -1 -2 -3 -4 -4 -4 -4 -4 -3 -3 -3 -2 -2 -3 -3 -3
5 6 6 6 6 6 6 5 4 4 3 2 2 1 -1 -1 -2 -2 -2 -2 -2 -1 -1 -1 -1 -1 -1 -1 -2 -3 -4 -4 -4 -4 -4 -4 -4 -3 -3 -3 -3 -3 -3 -3
4 5 6 6 6 6 5 4 3 2 1 1 0 -0 -0 -1 -1 -1 -1 -1 -1 -1 -1 -1 -1 -1 -2 -2 -2 -3 -4 -5 -5 -5 -5 -5 -4 -4 -4 -4 -4 -3 -3 -3
2 3 5 6 6 5 5 4 3 1 0 -0 -0 -0 0 0 0 0 0 1 1 1 1 0 -0 -1 -1 -2 -2 -3 -4 -5 -5 -5 -5 -5 -5 -5 -5 -4 -4 -4 -3 -3
2 3 5 6 6 5 5 4 3 2 1 -0 -0 -0 0 1 1 1 2 3 3 3 2 2 1 1 -0 -1 -2 -3 -4 -6 -6 -6 -6 -6 -5 -5 -5 -5 -5 -4 -4 -3
4 3 4 5 5 5 5 4 3 2 1 0 -0 -0 0 1 2 2 3 4 5 5 4 3 2 2 1 0 -1 -3 -4 -5 -6 -6 -6 -6 -6 -6 -5 -5 -5 -5 -4 -4
5 4 4 4 4 4 4 4 3 2 1 1 -0 -0 1 1 2 3 4 5 6 6 5 4 3 2 1 0 -1 -3 -4 -5 -6 -7 -7 -7 -7 -6 -6 -6 -5 -5 -5 -5
6 5 4 3 3 3 4 4 4 3 2 1 0 0 1 1 2 3 4 5 6 6 5 4 3 2 1 -1 -2 -3 -4 -5 -6 -6 -7 -7 -7 -7 -7 -6 -6 -6 -6 -6
6 5 3 2 2 2 3 4 4 3 3 2 1 0 0 1 2 2 4 5 6 6 5 4 3 2 1 -1 -2 -3 -4 -5 -5 -6 -7 -7 -7 -7 -7 -7 -6 -6 -6 -6
5 5 4 3 2 2 3 3 3 3 3 2 2 1 1 1 1 2 3 5 5 5 4 4 3 2 1 0 -1 -2 -3 -4 -4 -5 -6 -7 -7 -7 -7 -7 -7 -6 -6 -6
4 4 3 3 3 3 3 3 3 3 3 3 3 2 2 2 2 2 2 4 5 5 4 4 3 2 2 2 1 -1 -2 -3 -4 -4 -5 -6 -7 -7 -7 -7 -7 -7 -6 -6
3 3 3 3 3 3 3 3 3 3 3 4 4 4 3 3 3 3 3 4 4 4 4 3 2 2 2 2 2 1 0 -1 -3 -4 -4 -5 -6 -7 -7 -7 -7 -7 -7 -6
2 2 2 2 2 2 2 2 2 3 3 3 3 4 3 3 3 3 4 4 4 4 3 3 2 2 2 2 2 2 2 0 -2 -3 -4 -5 -5 -6 -7 -7 -7 -7 -7 -7
2 2 2 2 2 1 1 1 2 3 3 2 3 3 3 2 2 3 3 3 3 3 3 3 3 3 2 2 2 2 2 1 -0 -2 -3 -4 -5 -6 -6 -6 -6 -7 -7 -7
3 3 3 2 2 1 0 1 2 2 2 2 2 2 2 1 1 2 2 2 2 3 3 4 4 3 3 2 2 2 1 1 0 -1 -3 -4 -5 -5 -6 -6 -6 -6 -6 -6
3 3 3 2 2 1 0 0 1 1 1 0 1 1 1 1 1 1 0 1 1 2 2 3 3 3 3 2 2 2 2 1 0 -1 -2 -3 -4 -5 -5 -6 -6 -6 -5 -5
2 2 2 2 1 0 -0 0 0 0 -0 -0 -0 -0 0 0 0 -0 -0 -0 -0 0 1 1 2 2 2 2 3 3 2 1 1 -0 -2 -3 -4 -5 -5 -5 -5 -5 -5 -5
2 2 2 1 0 -0 -0 -0 -0 -1 -1 -1 -1 -0 0 0 0 0 -0 -0 -1 -1 -1 -0 0 1 2 3 4 4 4 3 3 1 -1 -2 -4 -5 -5 -5 -5 -5 -5 -5
2 2 1 1 0 -0 -0 -0 -0 -1 -1 -1 -0 0 1 1 1 1 1 -0 -1 -1 -1 -1 0 1 2 4 5 6 6 5 5 2 -0 -2 -3 -4 -5 -6 -6 -6 -6 -5
2 1 1 1 0 -0 -0 -1 -1 -2 -2 -1 0 1 2 2 2 3 2 1 0 -0 -0 -0 1 1 2 3 5 6 6 6 5 2 -0 -2 -3 -3 -4 -5 -5 -5 -5 -5
1 1 1 0 -0 -1 -1 -1 -2 -2 -1 -0 1 2 3 3 4 4 4 3 2 1 1 1 2 2 2 3 4 5 5 5 4 1 -0 -1 -1 -2 -3 -3 -3 -4 -3 -3
0 0 -0 -1 -1 -1 -1 -1 -2 -2 -1 0 2 3 4 5 5 6 5 5 4 3 2 2 2 2 2 3 4 4 4 4 2 1 0 -0 -1 -1 -2 -3 -3 -2 -2 -2